Flag for Australia Weather past 2 weeks in The Settlement, Christmas Island, Australia

Now
75 °F

Passing clouds.


Feels Like: 75 °F
Forecast: 74 / 77 °F
Wind: 12 mph from Southeast

Location: Christmas Island Aerodrome

Current Time: Jul 6, 2015 at 7:05:47 PM

Latest Report: Jul 6, 2015 at 6:00 PM


Visibility: N/A

Pressure: 29.89 "Hg

Humidity: 83%

Dew point: 70 °F

Location of The SettlementLocation

Historic Weather in The Settlement — Graph

°F

The Settlement temperature yesterday

Maximum temperature yesterday: 79 °F (at 10:00 AM)
Minimum temperature yesterday: 73 °F (at 6:00 PM)
Average temperature yesterday: 76 °F

Past Weeks' High & Low Weather Summary

 TemperatureHumidityPressure
High81 °F (Jun 22, 9:00 AM)100% (Jun 28, 5:00 PM)30.09 "Hg (Jun 28, 5:00 PM)
Low70 °F (Jul 3, 9:57 AM)57% (Jul 2, 9:00 PM)29.86 "Hg (Jul 6, 3:00 PM)
Average77 °F78%30.00 "Hg
* Reported Jun 21 6:00 PM — Jul 6 6:00 PM, The Settlement, Weather by CustomWeather, © 2015

Note: Actual official high and low records may vary slightly from our data, if they occured in-between our weather recording intervals... More about our weather records

Advertising

The Settlement weather history for previous 24 hours

 ConditionsComfort  
Time TempWeatherWind HumidityBarometerVisibility
6:00 PM
Mon, Jul 6
75 °FPassing clouds.12 mph83%29.89 "HgN/A
5:00 PM75 °FPartly sunny.13 mph83%29.89 "HgN/A
4:00 PM75 °FPartly sunny.13 mph89%29.86 "HgN/A
3:00 PM77 °FPartly sunny.14 mph83%29.86 "HgN/A
2:00 PM77 °FBroken clouds.14 mph83%29.89 "HgN/A
1:00 PM79 °FBroken clouds.14 mph74%29.92 "HgN/A
12:00 PM77 °FPartly sunny.13 mph79%29.92 "HgN/A
11:00 AM77 °FMostly cloudy.13 mph83%29.95 "HgN/A
10:00 AM73 °FSprinkles. Mostly cloudy.14 mph94%29.95 "HgN/A
9:00 AM75 °FMostly cloudy.16 mph89%29.98 "HgN/A
8:00 AM73 °FLow clouds.16 mph94%29.95 "HgN/A
7:00 AM73 °FMostly cloudy.15 mph94%29.95 "HgN/A
6:00 AM73 °FPartly cloudy.14 mph89%29.92 "HgN/A
5:02 AM73 °FPartly cloudy.13 mph94%29.92 "HgN/A
4:00 AM75 °FPassing clouds.15 mph83%29.92 "HgN/A
3:02 AM75 °FPassing clouds.14 mph83%29.92 "HgN/A
2:00 AM73 °FRain. Partly cloudy.14 mph89%29.92 "HgN/A
1:00 AM75 °FPartly cloudy.16 mph83%29.95 "HgN/A
12:00 AM75 °FPartly cloudy.15 mph78%29.95 "HgN/A
11:00 PM
Sun, Jul 5
75 °FPassing clouds.15 mph78%29.98 "HgN/A
10:00 PM75 °FPassing clouds.15 mph78%29.98 "HgN/A
9:00 PM75 °FPartly cloudy.13 mph78%29.98 "HgN/A
8:00 PM75 °FPassing clouds.15 mph83%29.95 "HgN/A
7:00 PM75 °FPassing clouds.14 mph78%29.95 "HgN/A
Weather by CustomWeather, © 2015

See weather overviewHow to use our weather pages